contact:dominique.lefevre@mio.osupytheas.fr, maurice.libes@osupytheas.fr, didier.mallarino@osupytheas.fr
Project:EMSO http://www.emso-fr.org/EMSO-France
Depth: 2436.0 m
Title:EMSO Ligure Ouest : Data MII capteur CSTAR
DateTime,Latitude,Longitude,Instrument_Serial,Reference_Counts,Signal_Counts,Corrected_Signal_raw_counts,Calculated_Beam_c_inverse_meters,Internal_thermistor_counts
DateTime,Latitude,Longitude,Instrument_Serial,Reference_Counts,Signal_Counts,Corrected_Signal_raw_counts,Calculated_Beam_c_inverse_meters,Internal_thermistor_counts
2023-04-13T00:01:08,42.805,6.029,CST-1368DR,4324,4734,11627,01.180,551
2023-04-13T00:04:10,42.805,6.029,CST-1368DR,4324,4732,11621,01.182,551
2023-04-13T00:07:11,42.805,6.029,CST-1368DR,4324,4733,11624,01.181,551
2023-04-13T00:10:13,42.805,6.029,CST-1368DR,4324,4736,11631,01.178,551
2023-04-13T00:13:14,42.805,6.029,CST-1368DR,4324,4740,11641,01.175,551
2023-04-13T00:16:16,42.805,6.029,CST-1368DR,4324,4734,11625,01.181,551
2023-04-13T00:19:18,42.805,6.029,CST-1368DR,4324,4736,11630,01.179,551
2023-04-13T00:22:19,42.805,6.029,CST-1368DR,4324,4740,11640,01.175,551
2023-04-13T00:25:21,42.805,6.029,CST-1368DR,4324,4733,11624,01.181,551
2023-04-13T00:28:22,42.805,6.029,CST-1368DR,4324,4730,11615,01.184,551
2023-04-13T00:31:24,42.805,6.029,CST-1368DR,4324,4741,11642,01.175,551
2023-04-13T00:34:25,42.805,6.029,CST-1368DR,4324,4737,11633,01.178,551
2023-04-13T00:37:27,42.805,6.029,CST-1368DR,4324,4735,11629,01.179,552
2023-04-13T00:40:29,42.805,6.029,CST-1368DR,4324,4736,11630,01.179,551
2023-04-13T00:43:30,42.805,6.029,CST-1368DR,4324,4734,11627,01.180,552
2023-04-13T00:46:32,42.805,6.029,CST-1368DR,4324,4736,11632,01.178,551
2023-04-13T00:49:33,42.805,6.029,CST-1368DR,4324,4741,11642,01.175,551
2023-04-13T00:52:35,42.805,6.029,CST-1368DR,4324,4737,11632,01.178,551
2023-04-13T00:55:37,42.805,6.029,CST-1368DR,4324,4741,11642,01.175,552
2023-04-13T00:58:38,42.805,6.029,CST-1368DR,4324,4742,11645,01.174,551
2023-04-13T01:01:40,42.805,6.029,CST-1368DR,4324,4741,11643,01.174,551
2023-04-13T01:04:41,42.805,6.029,CST-1368DR,4324,4739,11638,01.176,551
2023-04-13T01:07:43,42.805,6.029,CST-1368DR,4324,4738,11635,01.177,551
2023-04-13T01:10:44,42.805,6.029,CST-1368DR,4324,4739,11638,01.176,551
2023-04-13T01:13:46,42.805,6.029,CST-1368DR,4324,4744,11649,01.172,551
2023-04-13T01:16:48,42.805,6.029,CST-1368DR,4324,4740,11641,01.175,551
2023-04-13T01:19:49,42.805,6.029,CST-1368DR,4324,4734,11626,01.180,551
2023-04-13T01:22:51,42.805,6.029,CST-1368DR,4324,4741,11642,01.175,551
2023-04-13T01:25:52,42.805,6.029,CST-1368DR,4324,4740,11641,01.175,551
2023-04-13T01:28:54,42.805,6.029,CST-1368DR,4324,4741,11642,01.175,551
2023-04-13T01:31:55,42.805,6.029,CST-1368DR,4324,4744,11650,01.172,551
2023-04-13T01:34:57,42.805,6.029,CST-1368DR,4324,4739,11638,01.176,551
2023-04-13T01:37:59,42.805,6.029,CST-1368DR,4324,4743,11648,01.173,551
2023-04-13T01:41:00,42.805,6.029,CST-1368DR,4324,4741,11642,01.175,551
2023-04-13T01:44:02,42.805,6.029,CST-1368DR,4324,4743,11648,01.173,551
2023-04-13T01:47:03,42.805,6.029,CST-1368DR,4324,4741,11642,01.175,551
2023-04-13T01:50:05,42.805,6.029,CST-1368DR,4324,4742,11645,01.174,551
2023-04-13T01:53:07,42.805,6.029,CST-1368DR,4324,4743,11648,01.173,551
2023-04-13T01:56:08,42.805,6.029,CST-1368DR,4324,4737,11633,01.178,551
2023-04-13T01:59:10,42.805,6.029,CST-1368DR,4324,4741,11643,01.174,551
2023-04-13T02:02:11,42.805,6.029,CST-1368DR,4324,4749,11662,01.168,552
2023-04-13T02:05:13,42.805,6.029,CST-1368DR,4324,4741,11643,01.174,551
2023-04-13T02:08:14,42.805,6.029,CST-1368DR,4324,4738,11637,01.176,551
2023-04-13T02:11:16,42.805,6.029,CST-1368DR,4324,4740,11641,01.175,551
2023-04-13T02:14:18,42.805,6.029,CST-1368DR,4324,4741,11642,01.175,551
2023-04-13T02:17:19,42.805,6.029,CST-1368DR,4324,4742,11645,01.174,551
2023-04-13T02:20:21,42.805,6.029,CST-1368DR,4324,4741,11642,01.175,551
2023-04-13T02:23:22,42.805,6.029,CST-1368DR,4324,4741,11643,01.174,551
2023-04-13T02:26:24,42.805,6.029,CST-1368DR,4324,4739,11638,01.176,551
2023-04-13T02:29:25,42.805,6.029,CST-1368DR,4324,4740,11641,01.175,551
2023-04-13T02:32:27,42.805,6.029,CST-1368DR,4324,4740,11641,01.175,552
2023-04-13T02:35:29,42.805,6.029,CST-1368DR,4324,4738,11636,01.177,551
2023-04-13T02:38:30,42.805,6.029,CST-1368DR,4324,4740,11640,01.175,551
2023-04-13T02:41:32,42.805,6.029,CST-1368DR,4324,4737,11633,01.178,551
2023-04-13T02:44:33,42.805,6.029,CST-1368DR,4324,4739,11638,01.176,551
2023-04-13T02:47:35,42.805,6.029,CST-1368DR,4324,4736,11630,01.179,551
2023-04-13T02:50:37,42.805,6.029,CST-1368DR,4324,4734,11625,01.181,551
2023-04-13T02:53:38,42.805,6.029,CST-1368DR,4324,4739,11638,01.176,551
2023-04-13T02:56:40,42.805,6.029,CST-1368DR,4324,4737,11634,01.177,551
2023-04-13T02:59:41,42.805,6.029,CST-1368DR,4324,4736,11630,01.179,551
2023-04-13T03:02:43,42.805,6.029,CST-1368DR,4324,4738,11635,01.177,551
2023-04-13T03:05:44,42.805,6.029,CST-1368DR,4324,4738,11637,01.176,551
2023-04-13T03:08:46,42.805,6.029,CST-1368DR,4324,4737,11633,01.178,551
2023-04-13T03:11:48,42.805,6.029,CST-1368DR,4324,4738,11635,01.177,551
2023-04-13T03:14:49,42.805,6.029,CST-1368DR,4324,4739,11638,01.176,551
2023-04-13T03:17:51,42.805,6.029,CST-1368DR,4324,4735,11629,01.179,551
2023-04-13T03:20:52,42.805,6.029,CST-1368DR,4324,4732,11621,01.182,551
2023-04-13T03:23:54,42.805,6.029,CST-1368DR,4324,4738,11636,01.177,551
2023-04-13T03:26:55,42.805,6.029,CST-1368DR,4324,4733,11624,01.181,552
2023-04-13T03:29:57,42.805,6.029,CST-1368DR,4324,4736,11630,01.179,551
2023-04-13T03:32:59,42.805,6.029,CST-1368DR,4324,4733,11623,01.181,551
2023-04-13T03:36:00,42.805,6.029,CST-1368DR,4324,4727,11608,01.186,551
2023-04-13T03:39:02,42.805,6.029,CST-1368DR,4324,4734,11625,01.181,551
2023-04-13T03:42:03,42.805,6.029,CST-1368DR,4324,4740,11641,01.175,551
2023-04-13T03:45:05,42.805,6.029,CST-1368DR,4324,4734,11626,01.180,551
2023-04-13T03:48:06,42.805,6.029,CST-1368DR,4324,4729,11613,01.185,551
2023-04-13T03:51:08,42.805,6.029,CST-1368DR,4324,4734,11626,01.180,551
2023-04-13T03:54:10,42.805,6.029,CST-1368DR,4324,4731,11618,01.183,551
2023-04-13T03:57:11,42.805,6.029,CST-1368DR,4324,4735,11629,01.179,551
2023-04-13T04:00:13,42.805,6.029,CST-1368DR,4324,4738,11635,01.177,551
2023-04-13T04:03:14,42.805,6.029,CST-1368DR,4324,4736,11630,01.179,551
2023-04-13T04:06:16,42.805,6.029,CST-1368DR,4324,4730,11616,01.184,551
2023-04-13T04:09:18,42.805,6.029,CST-1368DR,4324,4737,11634,01.177,551
2023-04-13T04:12:19,42.805,6.029,CST-1368DR,4324,4737,11633,01.178,551
2023-04-13T04:15:21,42.805,6.029,CST-1368DR,4324,4739,11639,01.176,551
2023-04-13T04:18:22,42.805,6.029,CST-1368DR,4324,4733,11623,01.181,551
2023-04-13T04:21:24,42.805,6.029,CST-1368DR,4324,4734,11625,01.181,551
2023-04-13T04:24:25,42.805,6.029,CST-1368DR,4324,4732,11622,01.182,551
2023-04-13T04:27:27,42.805,6.029,CST-1368DR,4324,4735,11629,01.179,551
2023-04-13T04:30:29,42.805,6.029,CST-1368DR,4324,4734,11626,01.180,551
2023-04-13T04:33:30,42.805,6.029,CST-1368DR,4324,4736,11630,01.179,551
2023-04-13T04:36:32,42.805,6.029,CST-1368DR,4324,4735,11628,01.180,551
2023-04-13T04:39:33,42.805,6.029,CST-1368DR,4324,4738,11637,01.176,551
2023-04-13T04:42:35,42.805,6.029,CST-1368DR,4324,4732,11621,01.182,551
2023-04-13T04:45:37,42.805,6.029,CST-1368DR,4324,4737,11632,01.178,551
2023-04-13T04:48:38,42.805,6.029,CST-1368DR,4324,4731,11619,01.183,552
2023-04-13T04:51:40,42.805,6.029,CST-1368DR,4324,4732,11620,01.182,551
2023-04-13T04:54:41,42.805,6.029,CST-1368DR,4324,4732,11620,01.182,551
2023-04-13T04:57:43,42.805,6.029,CST-1368DR,4324,4734,11626,01.180,551
2023-04-13T05:00:44,42.805,6.029,CST-1368DR,4324,4730,11616,01.184,551
2023-04-13T05:03:46,42.805,6.029,CST-1368DR,4324,4733,11623,01.181,551
2023-04-13T05:06:48,42.805,6.029,CST-1368DR,4324,4731,11619,01.183,551
2023-04-13T05:09:49,42.805,6.029,CST-1368DR,4324,4736,11631,01.178,551
2023-04-13T05:12:51,42.805,6.029,CST-1368DR,4324,4736,11632,01.178,552
2023-04-13T05:15:52,42.805,6.029,CST-1368DR,4324,4740,11640,01.175,551
2023-04-13T05:18:54,42.805,6.029,CST-1368DR,4324,4733,11624,01.181,552
2023-04-13T05:21:55,42.805,6.029,CST-1368DR,4324,4738,11635,01.177,551
2023-04-13T05:24:57,42.805,6.029,CST-1368DR,4324,4734,11627,01.180,551
2023-04-13T05:27:59,42.805,6.029,CST-1368DR,4324,4732,11620,01.182,551
2023-04-13T05:31:00,42.805,6.029,CST-1368DR,4324,4737,11633,01.178,551
2023-04-13T05:34:02,42.805,6.029,CST-1368DR,4324,4737,11632,01.178,551
2023-04-13T05:37:03,42.805,6.029,CST-1368DR,4324,4733,11624,01.181,552
2023-04-13T05:40:05,42.805,6.029,CST-1368DR,4324,4736,11630,01.179,551
2023-04-13T05:43:07,42.805,6.029,CST-1368DR,4324,4728,11610,01.186,551
2023-04-13T05:46:08,42.805,6.029,CST-1368DR,4324,4729,11614,01.184,551
2023-04-13T05:49:10,42.805,6.029,CST-1368DR,4324,4733,11624,01.181,551
2023-04-13T05:52:11,42.805,6.029,CST-1368DR,4324,4730,11616,01.184,551
2023-04-13T05:55:13,42.805,6.029,CST-1368DR,4324,4727,11609,01.186,551
2023-04-13T05:58:14,42.805,6.029,CST-1368DR,4324,4731,11619,01.183,552
2023-04-13T06:01:16,42.805,6.029,CST-1368DR,4324,4728,11610,01.186,551
2023-04-13T06:04:18,42.805,6.029,CST-1368DR,4324,4727,11610,01.186,551
2023-04-13T06:07:19,42.805,6.029,CST-1368DR,4324,4730,11616,01.184,551
2023-04-13T06:10:21,42.805,6.029,CST-1368DR,4324,4733,11624,01.181,551
2023-04-13T06:13:22,42.805,6.029,CST-1368DR,4324,4729,11613,01.185,551
2023-04-13T06:16:24,42.805,6.029,CST-1368DR,4324,4729,11614,01.184,551
2023-04-13T06:19:25,42.805,6.029,CST-1368DR,4324,4727,11610,01.186,551
2023-04-13T06:22:27,42.805,6.029,CST-1368DR,4324,4734,11625,01.181,551
2023-04-13T06:25:29,42.805,6.029,CST-1368DR,4324,4729,11614,01.184,551
2023-04-13T06:28:30,42.805,6.029,CST-1368DR,4324,4725,11603,01.188,551
2023-04-13T06:31:34,42.805,6.029,CST-1368DR,4324,4734,11626,01.180,551
2023-04-13T06:34:36,42.805,6.029,CST-1368DR,4324,4732,11620,01.182,551
2023-04-13T06:37:37,42.805,6.029,CST-1368DR,4324,4727,11608,01.186,551
2023-04-13T06:40:39,42.805,6.029,CST-1368DR,4324,4728,11612,01.185,551
2023-04-13T06:43:41,42.805,6.029,CST-1368DR,4324,4729,11614,01.184,552
2023-04-13T06:46:42,42.805,6.029,CST-1368DR,4324,4733,11624,01.181,551
2023-04-13T06:49:44,42.805,6.029,CST-1368DR,4324,4727,11610,01.186,551
2023-04-13T06:52:45,42.805,6.029,CST-1368DR,4324,4730,11617,01.183,551
2023-04-13T06:55:47,42.805,6.029,CST-1368DR,4324,4729,11614,01.184,552
2023-04-13T06:58:49,42.805,6.029,CST-1368DR,4324,4731,11619,01.183,551
2023-04-13T07:01:50,42.805,6.029,CST-1368DR,4324,4729,11613,01.185,551
2023-04-13T07:04:52,42.805,6.029,CST-1368DR,4324,4731,11618,01.183,551
2023-04-13T07:07:53,42.805,6.029,CST-1368DR,4324,4732,11620,01.182,551
2023-04-13T07:10:55,42.805,6.029,CST-1368DR,4324,4727,11608,01.186,551
2023-04-13T07:13:56,42.805,6.029,CST-1368DR,4324,4728,11611,01.185,551
2023-04-13T07:16:58,42.805,6.029,CST-1368DR,4324,4729,11614,01.184,551
2023-04-13T07:20:00,42.805,6.029,CST-1368DR,4324,4726,11607,01.187,551
2023-04-13T07:23:01,42.805,6.029,CST-1368DR,4324,4735,11629,01.179,551
2023-04-13T07:26:03,42.805,6.029,CST-1368DR,4324,4734,11625,01.181,551
2023-04-13T07:29:04,42.805,6.029,CST-1368DR,4324,4726,11607,01.187,551
2023-04-13T07:32:06,42.805,6.029,CST-1368DR,4324,4727,11609,01.186,551
2023-04-13T07:35:07,42.805,6.029,CST-1368DR,4324,4735,11628,01.180,551
2023-04-13T07:38:09,42.805,6.029,CST-1368DR,4324,4729,11614,01.184,551
2023-04-13T07:41:11,42.805,6.029,CST-1368DR,4324,4727,11608,01.186,551
2023-04-13T07:44:12,42.805,6.029,CST-1368DR,4324,4732,11622,01.182,551
2023-04-13T07:47:14,42.805,6.029,CST-1368DR,4324,4727,11608,01.186,551
2023-04-13T07:50:15,42.805,6.029,CST-1368DR,4324,4730,11616,01.184,551
2023-04-13T07:53:17,42.805,6.029,CST-1368DR,4324,4732,11621,01.182,551
2023-04-13T07:56:18,42.805,6.029,CST-1368DR,4324,4731,11619,01.183,552
2023-04-13T07:59:20,42.805,6.029,CST-1368DR,4324,4725,11603,01.188,551
2023-04-13T08:02:22,42.805,6.029,CST-1368DR,4324,4731,11618,01.183,551
2023-04-13T08:05:23,42.805,6.029,CST-1368DR,4324,4729,11614,01.184,551
2023-04-13T08:08:25,42.805,6.029,CST-1368DR,4324,4730,11617,01.183,551
2023-04-13T08:11:26,42.805,6.029,CST-1368DR,4324,4729,11613,01.185,551
2023-04-13T08:14:28,42.805,6.029,CST-1368DR,4324,4729,11613,01.185,551
2023-04-13T08:17:30,42.805,6.029,CST-1368DR,4324,4738,11635,01.177,551
2023-04-13T08:20:31,42.805,6.029,CST-1368DR,4324,4741,11643,01.174,551
2023-04-13T08:23:33,42.805,6.029,CST-1368DR,4324,4740,11640,01.175,552
2023-04-13T08:26:34,42.805,6.029,CST-1368DR,4324,4734,11625,01.181,551
2023-04-13T08:29:36,42.805,6.029,CST-1368DR,4324,4736,11632,01.178,551
2023-04-13T08:32:37,42.805,6.029,CST-1368DR,4324,4735,11628,01.180,551
2023-04-13T08:35:39,42.805,6.029,CST-1368DR,4324,4737,11634,01.177,551
2023-04-13T08:38:40,42.805,6.029,CST-1368DR,4324,4737,11634,01.177,551
2023-04-13T08:41:42,42.805,6.029,CST-1368DR,4324,4736,11630,01.179,551
2023-04-13T08:44:43,42.805,6.029,CST-1368DR,4324,4740,11640,01.175,551
2023-04-13T08:47:45,42.805,6.029,CST-1368DR,4324,4730,11615,01.184,551
2023-04-13T08:50:47,42.805,6.029,CST-1368DR,4324,4733,11623,01.181,551
2023-04-13T08:53:48,42.805,6.029,CST-1368DR,4324,4732,11622,01.182,552
2023-04-13T08:56:50,42.805,6.029,CST-1368DR,4324,4732,11620,01.182,551
2023-04-13T08:59:51,42.805,6.029,CST-1368DR,4324,4734,11627,01.180,551
2023-04-13T09:02:53,42.805,6.029,CST-1368DR,4324,4727,11609,01.186,551
2023-04-13T09:05:54,42.805,6.029,CST-1368DR,4324,4731,11619,01.183,551
2023-04-13T09:08:56,42.805,6.029,CST-1368DR,4324,4730,11616,01.184,551
2023-04-13T09:11:58,42.805,6.029,CST-1368DR,4324,4730,11616,01.184,551
2023-04-13T09:14:59,42.805,6.029,CST-1368DR,4324,4730,11615,01.184,551
2023-04-13T09:18:01,42.805,6.029,CST-1368DR,4324,4727,11610,01.186,551
2023-04-13T09:21:02,42.805,6.029,CST-1368DR,4324,4727,11610,01.186,551
2023-04-13T09:24:04,42.805,6.029,CST-1368DR,4324,4729,11613,01.185,551
2023-04-13T09:27:05,42.805,6.029,CST-1368DR,4324,4727,11610,01.186,551
2023-04-13T09:30:07,42.805,6.029,CST-1368DR,4324,4734,11625,01.181,551
2023-04-13T09:33:09,42.805,6.029,CST-1368DR,4324,4729,11614,01.184,551
2023-04-13T09:36:10,42.805,6.029,CST-1368DR,4324,4728,11611,01.185,551
2023-04-13T09:39:12,42.805,6.029,CST-1368DR,4324,4733,11622,01.182,551
2023-04-13T09:42:13,42.805,6.029,CST-1368DR,4324,4726,11606,01.187,551
2023-04-13T09:45:15,42.805,6.029,CST-1368DR,4324,4736,11630,01.179,551
2023-04-13T09:48:16,42.805,6.029,CST-1368DR,4324,4733,11623,01.181,551
2023-04-13T09:51:18,42.805,6.029,CST-1368DR,4324,4730,11616,01.184,551
2023-04-13T09:54:20,42.805,6.029,CST-1368DR,4324,4732,11621,01.182,551
2023-04-13T09:57:21,42.805,6.029,CST-1368DR,4324,4730,11616,01.184,551
2023-04-13T10:00:23,42.805,6.029,CST-1368DR,4324,4733,11624,01.181,551
2023-04-13T10:03:24,42.805,6.029,CST-1368DR,4324,4730,11617,01.183,551
2023-04-13T10:06:26,42.805,6.029,CST-1368DR,4324,4731,11618,01.183,551
2023-04-13T10:09:28,42.805,6.029,CST-1368DR,4324,4732,11621,01.182,551
2023-04-13T10:12:29,42.805,6.029,CST-1368DR,4324,4732,11620,01.182,551
2023-04-13T10:15:31,42.805,6.029,CST-1368DR,4323,4727,11611,01.185,551
2023-04-13T10:18:32,42.805,6.029,CST-1368DR,4323,4726,11608,01.186,551
2023-04-13T10:21:34,42.805,6.029,CST-1368DR,4323,4729,11616,01.184,551
2023-04-13T10:24:35,42.805,6.029,CST-1368DR,4323,4730,11619,01.183,551
2023-04-13T10:27:37,42.805,6.029,CST-1368DR,4323,4727,11612,01.185,551
2023-04-13T10:30:39,42.805,6.029,CST-1368DR,4323,4731,11622,01.182,551
2023-04-13T10:33:40,42.805,6.029,CST-1368DR,4323,4726,11610,01.186,551
2023-04-13T10:36:42,42.805,6.029,CST-1368DR,4323,4727,11611,01.185,551
2023-04-13T10:39:43,42.805,6.029,CST-1368DR,4323,4723,11601,01.189,551
2023-04-13T10:42:45,42.805,6.029,CST-1368DR,4323,4730,11618,01.183,551
2023-04-13T10:45:46,42.805,6.029,CST-1368DR,4323,4713,11577,01.197,551
2023-04-13T10:48:48,42.805,6.029,CST-1368DR,4323,4726,11609,01.186,551
2023-04-13T10:51:50,42.805,6.029,CST-1368DR,4323,4728,11615,01.184,551
2023-04-13T10:54:51,42.805,6.029,CST-1368DR,4323,4726,11609,01.186,552
2023-04-13T10:57:53,42.805,6.029,CST-1368DR,4324,4727,11608,01.186,551
2023-04-13T11:00:54,42.805,6.029,CST-1368DR,4323,4729,11615,01.184,551
2023-04-13T11:03:56,42.805,6.029,CST-1368DR,4324,4728,11611,01.185,551
2023-04-13T11:06:58,42.805,6.029,CST-1368DR,4324,4728,11612,01.185,551
2023-04-13T11:09:59,42.805,6.029,CST-1368DR,4324,4729,11614,01.184,551
2023-04-13T11:13:01,42.805,6.029,CST-1368DR,4324,4730,11617,01.183,551
2023-04-13T11:16:02,42.805,6.029,CST-1368DR,4324,4729,11613,01.185,551
2023-04-13T11:19:04,42.805,6.029,CST-1368DR,4324,4729,11614,01.184,551
2023-04-13T11:22:05,42.805,6.029,CST-1368DR,4324,4733,11624,01.181,551
2023-04-13T11:25:07,42.805,6.029,CST-1368DR,4324,4730,11616,01.184,551
2023-04-13T11:28:09,42.805,6.029,CST-1368DR,4324,4731,11618,01.183,551
2023-04-13T11:31:10,42.805,6.029,CST-1368DR,4324,4725,11603,01.188,551
2023-04-13T11:34:12,42.805,6.029,CST-1368DR,4324,4727,11610,01.186,551
2023-04-13T11:37:13,42.805,6.029,CST-1368DR,4324,4735,11629,01.179,551
2023-04-13T11:40:15,42.805,6.029,CST-1368DR,4324,4731,11618,01.183,551
2023-04-13T11:43:16,42.805,6.029,CST-1368DR,4324,4734,11625,01.181,551
2023-04-13T11:46:18,42.805,6.029,CST-1368DR,4324,4733,11624,01.181,551
2023-04-13T11:49:20,42.805,6.029,CST-1368DR,4324,4733,11624,01.181,551
2023-04-13T11:52:21,42.805,6.029,CST-1368DR,4324,4731,11619,01.183,551
2023-04-13T11:55:23,42.805,6.029,CST-1368DR,4324,4733,11624,01.181,551
2023-04-13T11:58:24,42.805,6.029,CST-1368DR,4324,4733,11624,01.181,551
2023-04-13T12:01:26,42.805,6.029,CST-1368DR,4324,4732,11622,01.182,551
2023-04-13T12:04:28,42.805,6.029,CST-1368DR,4324,4731,11618,01.183,551
2023-04-13T12:07:29,42.805,6.029,CST-1368DR,4324,4732,11621,01.182,551
2023-04-13T12:10:31,42.805,6.029,CST-1368DR,4324,4733,11623,01.181,551
2023-04-13T12:13:32,42.805,6.029,CST-1368DR,4324,4733,11623,01.181,551
2023-04-13T12:16:34,42.805,6.029,CST-1368DR,4324,4734,11625,01.181,551
2023-04-13T12:19:35,42.805,6.029,CST-1368DR,4324,4736,11630,01.179,551
2023-04-13T12:22:37,42.805,6.029,CST-1368DR,4324,4734,11626,01.180,551
2023-04-13T12:25:39,42.805,6.029,CST-1368DR,4324,4734,11625,01.181,551
2023-04-13T12:28:40,42.805,6.029,CST-1368DR,4324,4737,11633,01.178,552
2023-04-13T12:31:45,42.805,6.029,CST-1368DR,4324,4733,11624,01.181,552
2023-04-13T12:34:46,42.805,6.029,CST-1368DR,4324,4736,11630,01.179,551
2023-04-13T12:37:48,42.805,6.029,CST-1368DR,4324,4736,11630,01.179,551
2023-04-13T12:40:50,42.805,6.029,CST-1368DR,4324,4733,11622,01.182,551
2023-04-13T12:43:51,42.805,6.029,CST-1368DR,4324,4735,11629,01.179,551
2023-04-13T12:46:53,42.805,6.029,CST-1368DR,4324,4734,11626,01.180,551
2023-04-13T12:49:54,42.805,6.029,CST-1368DR,4324,4734,11625,01.181,551
2023-04-13T12:52:56,42.805,6.029,CST-1368DR,4324,4733,11624,01.181,551
2023-04-13T12:55:57,42.805,6.029,CST-1368DR,4324,4734,11625,01.181,552
2023-04-13T12:58:59,42.805,6.029,CST-1368DR,4324,4731,11618,01.183,551
2023-04-13T13:02:01,42.805,6.029,CST-1368DR,4324,4734,11627,01.180,551
2023-04-13T13:05:02,42.805,6.029,CST-1368DR,4324,4734,11627,01.180,551
2023-04-13T13:08:04,42.805,6.029,CST-1368DR,4324,4731,11619,01.183,551
2023-04-13T13:11:05,42.805,6.029,CST-1368DR,4324,4735,11629,01.179,551
2023-04-13T13:14:07,42.805,6.029,CST-1368DR,4324,4733,11624,01.181,551
2023-04-13T13:17:08,42.805,6.029,CST-1368DR,4324,4733,11624,01.181,551
2023-04-13T13:20:10,42.805,6.029,CST-1368DR,4324,4729,11614,01.184,551
2023-04-13T13:23:12,42.805,6.029,CST-1368DR,4324,4728,11612,01.185,551
2023-04-13T13:26:13,42.805,6.029,CST-1368DR,4324,4731,11618,01.183,551
2023-04-13T13:29:15,42.805,6.029,CST-1368DR,4324,4733,11624,01.181,551
2023-04-13T13:32:16,42.805,6.029,CST-1368DR,4324,4733,11624,01.181,551
2023-04-13T13:35:18,42.805,6.029,CST-1368DR,4324,4727,11609,01.186,551
2023-04-13T13:38:19,42.805,6.029,CST-1368DR,4324,4733,11623,01.181,551
2023-04-13T13:41:21,42.805,6.029,CST-1368DR,4324,4735,11629,01.179,551
2023-04-13T13:44:23,42.805,6.029,CST-1368DR,4324,4733,11624,01.181,551
2023-04-13T13:47:24,42.805,6.029,CST-1368DR,4324,4735,11629,01.179,551
2023-04-13T13:50:26,42.805,6.029,CST-1368DR,4324,4732,11621,01.182,551
2023-04-13T13:53:27,42.805,6.029,CST-1368DR,4324,4731,11618,01.183,551
2023-04-13T13:56:29,42.805,6.029,CST-1368DR,4324,4737,11633,01.178,551
2023-04-13T13:59:31,42.805,6.029,CST-1368DR,4324,4733,11624,01.181,551
2023-04-13T14:02:32,42.805,6.029,CST-1368DR,4324,4729,11613,01.185,551
2023-04-13T14:05:34,42.805,6.029,CST-1368DR,4324,4728,11611,01.185,551
2023-04-13T14:08:35,42.805,6.029,CST-1368DR,4324,4727,11610,01.186,551
2023-04-13T14:11:37,42.805,6.029,CST-1368DR,4324,4725,11605,01.187,551
2023-04-13T14:14:38,42.805,6.029,CST-1368DR,4324,4724,11600,01.189,552
2023-04-13T14:17:40,42.805,6.029,CST-1368DR,4324,4726,11607,01.187,551
2023-04-13T14:20:42,42.805,6.029,CST-1368DR,4324,4724,11600,01.189,551
2023-04-13T14:23:43,42.805,6.029,CST-1368DR,4324,4726,11607,01.187,552
2023-04-13T14:26:45,42.805,6.029,CST-1368DR,4324,4727,11609,01.186,551
2023-04-13T14:29:46,42.805,6.029,CST-1368DR,4324,4723,11598,01.190,551
2023-04-13T14:32:48,42.805,6.029,CST-1368DR,4324,4725,11605,01.187,552
2023-04-13T14:35:50,42.805,6.029,CST-1368DR,4324,4723,11600,01.189,551
2023-04-13T14:38:51,42.805,6.029,CST-1368DR,4324,4725,11605,01.187,551
2023-04-13T14:41:53,42.805,6.029,CST-1368DR,4324,4726,11606,01.187,551
2023-04-13T14:44:54,42.805,6.029,CST-1368DR,4324,4728,11611,01.185,551
2023-04-13T14:47:56,42.805,6.029,CST-1368DR,4324,4728,11611,01.185,551
2023-04-13T14:50:57,42.805,6.029,CST-1368DR,4324,4722,11597,01.190,551
2023-04-13T14:53:59,42.805,6.029,CST-1368DR,4324,4729,11613,01.185,551
2023-04-13T14:57:01,42.805,6.029,CST-1368DR,4324,4736,11632,01.178,551
2023-04-13T15:00:02,42.805,6.029,CST-1368DR,4324,4727,11608,01.186,551
2023-04-13T15:03:04,42.805,6.029,CST-1368DR,4324,4732,11621,01.182,551
2023-04-13T15:06:05,42.805,6.029,CST-1368DR,4324,4735,11629,01.179,552
2023-04-13T15:09:07,42.805,6.029,CST-1368DR,4324,4734,11626,01.180,551
2023-04-13T15:12:08,42.805,6.029,CST-1368DR,4324,4738,11635,01.177,551
2023-04-13T15:15:10,42.805,6.029,CST-1368DR,4324,4743,11648,01.173,551
2023-04-13T15:18:12,42.805,6.029,CST-1368DR,4324,4743,11647,01.173,551
2023-04-13T15:21:13,42.805,6.029,CST-1368DR,4324,4739,11639,01.176,551
2023-04-13T15:24:15,42.805,6.029,CST-1368DR,4324,4742,11645,01.174,551
2023-04-13T15:27:16,42.805,6.029,CST-1368DR,4324,4746,11654,01.171,551
2023-04-13T15:30:18,42.805,6.029,CST-1368DR,4324,4744,11649,01.172,551
2023-04-13T15:33:20,42.805,6.029,CST-1368DR,4324,4743,11648,01.173,551
2023-04-13T15:36:21,42.805,6.029,CST-1368DR,4324,4744,11651,01.172,551
2023-04-13T15:39:23,42.805,6.029,CST-1368DR,4324,4746,11654,01.171,551
2023-04-13T15:42:24,42.805,6.029,CST-1368DR,4324,4744,11649,01.172,551
2023-04-13T15:45:26,42.805,6.029,CST-1368DR,4324,4744,11650,01.172,551
2023-04-13T15:48:27,42.805,6.029,CST-1368DR,4324,4745,11653,01.171,551
2023-04-13T15:51:29,42.805,6.029,CST-1368DR,4324,4746,11656,01.170,551
2023-04-13T15:54:31,42.805,6.029,CST-1368DR,4324,4746,11656,01.170,551
2023-04-13T15:57:32,42.805,6.029,CST-1368DR,4324,4743,11649,01.172,551
2023-04-13T16:00:34,42.805,6.029,CST-1368DR,4324,4746,11654,01.171,551
2023-04-13T16:03:35,42.805,6.029,CST-1368DR,4324,4744,11651,01.172,551
2023-04-13T16:06:37,42.805,6.029,CST-1368DR,4324,4745,11653,01.171,551
2023-04-13T16:09:38,42.805,6.029,CST-1368DR,4324,4745,11654,01.171,551
2023-04-13T16:12:40,42.805,6.029,CST-1368DR,4324,4747,11657,01.170,551
2023-04-13T16:15:42,42.805,6.029,CST-1368DR,4324,4745,11653,01.171,551
2023-04-13T16:18:43,42.805,6.029,CST-1368DR,4324,4745,11654,01.171,551
2023-04-13T16:21:45,42.805,6.029,CST-1368DR,4324,4745,11654,01.171,552
2023-04-13T16:24:46,42.805,6.029,CST-1368DR,4324,4745,11653,01.171,552
2023-04-13T16:27:48,42.805,6.029,CST-1368DR,4324,4743,11647,01.173,551
2023-04-13T16:30:50,42.805,6.029,CST-1368DR,4324,4745,11654,01.171,551
2023-04-13T16:33:52,42.805,6.029,CST-1368DR,4324,4747,11657,01.170,551
2023-04-13T16:36:53,42.805,6.029,CST-1368DR,4324,4746,11655,01.170,551